KINEIS-3B

Last updated on Wed Oct 22 2025 00:02:42 GMT+0000 (Coordinated Universal Time)

1 61224U 24172E 25294.47107507 .00004582 00000+0 73080-3 0 9993 2 61224 98.0291 22.3434 0003400 107.5833 252.5746 14.72402689 58229
UTC large
Height (km)
Speed (km/s)
/
Latitude / Longitude
Inclination (degrees)
Orbital Period (minutes)
Azimuth
Elevation
Range (km)
Doppler Factor

Next 0 passes for location: London (51.5072 / 0.1276)

Sorry there are no passes over London.